GFSMW_prec_cloud_057.txt.gz
Cloud_Cover
17 4 0 0 1 0 0 0 0 0 0 0 16 27 100 100 100 92 79 52 76 4 5 88 0 62 100 96 1 0 2 13 98 66 0 0 1 25 20 37 88 0 9
21 8 0 0 0 0 0 0 0 0 0 0 0 26 50 34 97 76 0 1 2 5 100 88 13 20 70 16 0 81 98 61 58 33 62 89 42 27 100 6 0 7 41
0 2 0 0 0 3 0 0 0 0 0 0 0 8 2 84 10 85 0 2 11 1 79 6 85 4 56 20 0 0 10 95 19 5 84 77 100 30 0 0 29 5 86
0 0 0 0 0 0 1 0 0 0 0 0 0 0 0 3 12 55 20 22 3 1 6 66 3 11 100 16 48 49 15 98 48 0 27 20 17 99 97 4 0 0 0
0 0 0 0 0 0 0 0 0 0 0 0 0 0 0 0 0 25 52 5 0 13 15 8 5 38 93 0 91 52 0 2 93 37 30 0 0 34 39 100 5 2 0
0 0 0 0 0 0 4 1 0 0 0 0 0 0 0 0 0 0 18 0 2 1 10 11 17 2 12 0 3 2 0 6 15 33 24 38 49 71 2 8 2 20 0
0 0 0 0 0 0 0 0 0 0 0 0 0 0 0 0 0 0 0 8 4 14 0 0 1 2 0 29 2 0 62 0 0 0 0 27 20 54 8 8 2 1 0
0 0 0 0 0 0 0 0 0 0 0 0 0 0 0 0 0 0 0 0 0 0 43 0 0 0 16 3 4 0 0 0 0 0 0 0 0 0 0 19 12 3 35
0 0 0 0 0 0 0 0 0 0 0 0 0 0 0 0 0 0 0 0 0 0 0 0 0 0 0 0 0 1 0 44 0 0 0 0 0 0 0 0 0 0 6
6 0 0 0 0 0 0 0 0 0 0 0 0 0 0 0 0 0 0 0 0 0 30 0 0 0 0 0 0 7 0 0 0 0 5 0 0 0 0 0 0 0 0
23 0 2 0 0 1 0 0 0 0 0 0 0 0 0 0 0 0 0 0 0 0 0 0 0 0 0 0 0 0 32 0 0 0 11 4 0 0 0 0 0 0 0
57 5 5 2 5 5 4 0 0 0 0 0 0 0 0 0 0 0 0 0 0 0 0 0 0 0 0 0 0 0 0 8 0 0 0 0 0 0 0 0 0 0 0
92 33 9 3 2 4 0 0 0 0 0 0 0 0 0 0 0 0 0 0 0 0 0 0 0 0 0 0 0 0 0 0 0 0 0 0 0 0 0 0 0 0 0
91 100 91 6 2 0 4 5 3 0 0 0 0 0 0 0 0 0 0 0 0 0 0 0 0 0 0 0 0 0 0 0 0 0 0 0 0 0 0 0 0 0 0
92 100 100 56 5 0 0 5 53 3 0 0 0 0 0 0 0 0 0 0 0 0 0 0 0 0 0 0 0 0 0 0 0 0 0 0 0 0 0 0 0 0 3
5 17 36 5 5 5 3 5 5 0 0 0 0 0 0 0 0 0 0 0 0 0 0 0 0 0 0 0 0 0 0 0 0 0 0 0 0 0 0 0 0 0 1
2 0 0 0 4 5 5 1 2 5 5 1 0 0 0 0 0 0 0 0 0 0 0 0 0 0 0 0 0 0 0 0 0 0 0 0 0 0 0 0 1 0 0
0 0 0 0 1 5 0 0 4 5 5 3 0 0 0 0 0 0 0 0 0 0 0 0 0 0 0 0 0 0 0 0 0 0 0 0 0 0 0 2 4 3 4
0 0 0 0 1 5 1 4 0 0 5 5 0 0 0 0 0 0 0 0 0 0 0 0 0 0 0 0 0 0 0 0 0 0 0 0 0 0 0 0 1 5 20
0 0 0 0 5 5 3 5 5 0 0 0 5 5 0 0 0 0 0 0 0 0 0 0 0 0 0 1 0 0 0 0 0 0 0 0 0 0 0 0 1 0 4
47 23 0 0 5 5 1 2 5 5 4 5 36 5 0 1 0 0 0 0 0 0 0 0 0 0 0 0 0 0 0 0 0 0 0 0 0 2 1 1 0 0 10
55 19 28 0 0 0 0 1 5 95 80 5 5 5 3 4 1 0 0 0 0 0 0 0 0 0 0 1 25 0 5 0 0 0 0 0 0 0 3 9 5 5 47
100 100 99 19 2 0 0 2 5 88 14 4 5 5 5 5 4 0 0 0 0 0 0 0 0 0 0 0 17 7 1 12 7 0 10 8 0 0 65 38 5 73 49
100 100 100 100 96 45 9 0 0 0 5 5 5 5 3 5 0 2 26 5 0 0 0 0 0 0 0 0 0 1 3 59 42 0 0 0 17 95 68 24 37 14 10
100 100 100 100 100 98 44 6 73 66 9 0 2 5 4 51 9 0 0 0 0 13 0 0 0 0 0 0 0 0 0 0 0 0 0 0 0 0 4 27 77 99 80
100 100 100 100 100 100 99 92 100 100 100 99 95 66 18 50 33 2 0 78 67 100 100 82 54 38 83 71 5 95 61 42 7 3 0 0 0 7 22 23 57 41 44

GFSMW_prec_cloud_060.txt.gz
Cloud_Cover
45 28 25 0 70 0 0 0 33 0 0 0 0 0 0 100 39 86 100 5 18 0 2 0 0 73 100 11 0 39 1 100 78 100 1 100 0 17 17 97 30 0 0
11 21 13 0 33 0 0 0 0 0 0 0 0 67 4 4 92 7 4 0 24 2 0 7 0 49 61 0 0 100 45 0 84 0 100 71 12 47 79 5 7 15 70
0 0 0 0 0 0 0 0 0 0 0 0 0 13 100 44 82 31 6 0 8 88 7 0 0 0 3 4 0 82 46 0 7 5 91 42 100 100 0 0 3 0 98
17 0 0 0 0 0 0 0 0 0 0 0 0 0 8 100 0 1 24 0 0 8 37 0 8 7 37 5 0 0 17 100 1 2 18 88 46 66 96 61 0 0 2
0 0 0 0 0 0 0 0 0 0 0 0 0 0 0 6 100 4 23 1 0 0 31 3 0 97 5 0 0 0 0 0 100 6 0 10 0 7 100 99 0 0 0
0 0 0 0 0 0 0 0 0 0 0 0 0 0 0 0 72 46 73 62 0 0 26 4 8 2 0 2 2 0 2 0 1 97 0 5 13 28 36 76 8 0 0
0 0 0 0 0 0 0 0 0 0 0 0 0 0 0 0 1 18 91 10 0 4 0 0 0 0 0 0 0 0 0 0 0 8 10 46 100 79 68 100 41 7 0
0 0 0 0 0 0 0 0 0 0 0 0 0 0 0 0 0 0 0 98 0 31 0 2 0 0 0 0 0 0 0 0 0 0 0 0 44 43 0 2 70 0 25
32 46 0 0 0 0 0 0 0 0 0 0 0 0 0 0 0 0 0 0 0 43 31 0 0 0 0 0 0 0 0 0 0 0 0 0 0 2 0 0 0 0 0
100 100 4 0 0 0 0 0 0 0 0 0 0 0 0 0 0 0 0 0 0 1 18 5 0 0 0 0 0 0 0 0 0 0 0 0 0 0 10 0 0 0 0
100 100 100 9 0 0 0 0 0 0 0 0 0 0 0 0 0 0 0 0 0 0 7 2 0 0 0 0 0 0 3 1 0 0 0 0 0 0 0 0 0 0 0
100 100 100 100 4 0 0 0 0 0 0 0 0 0 0 0 0 0 0 0 0 0 0 0 0 0 0 0 0 0 0 0 0 0 0 0 0 0 0 0 0 0 0
79 100 100 100 100 23 0 0 0 0 0 0 0 0 0 0 0 0 0 0 0 0 0 0 0 0 0 0 0 0 0 0 0 0 0 0 0 0 0 0 0 0 0
98 100 100 100 100 21 0 0 0 0 0 0 0 0 0 0 0 0 0 0 0 0 0 0 0 0 0 0 0 0 0 0 0 0 0 0 0 0 0 0 0 0 0
15 41 100 99 100 0 0 0 0 0 0 0 0 0 0 0 0 0 0 0 0 0 0 0 0 0 0 0 0 0 0 0 0 0 0 0 0 0 0 0 0 0 0
71 63 100 82 92 100 4 5 0 0 0 0 0 0 0 0 0 0 0 0 0 0 0 0 0 0 0 0 0 0 0 0 0 0 0 0 0 0 0 0 0 0 4
97 92 71 97 99 31 100 100 10 3 0 0 0 0 0 0 0 0 0 0 0 0 0 0 0 0 0 0 0 0 0 0 0 0 0 0 0 0 0 0 0 0 0
19 12 16 19 100 100 100 100 100 5 2 0 0 0 0 0 0 0 0 0 0 0 0 0 0 0 0 0 0 0 0 0 0 0 0 0 0 0 0 0 0 0 0
75 18 5 20 18 59 100 100 100 0 0 0 0 0 0 0 0 0 0 0 0 0 0 0 0 0 0 0 0 0 0 0 0 0 0 0 0 0 0 0 0 0 0
46 60 11 5 5 31 4 50 1 0 0 0 0 0 0 0 0 0 0 0 0 0 0 0 0 0 0 0 0 0 0 0 0 0 0 0 0 0 0 0 0 0 0
98 86 6 2 0 0 0 0 0 0 0 5 5 0 0 0 0 0 0 0 0 0 0 0 0 0 0 0 0 0 0 0 0 0 0 0 0 0 0 0 0 0 3
53 100 100 91 82 10 38 0 0 0 0 5 5 2 0 2 16 0 0 0 0 0 0 0 0 0 0 0 30 0 0 0 0 0 0 0 0 0 0 0 0 0 37
100 100 100 100 72 33 35 0 0 3 5 2 5 5 4 5 5 0 0 5 0 0 0 0 0 0 0 0 2 3 0 0 0 0 10 12 0 0 50 0 0 58 4
100 100 100 93 96 100 100 58 5 1 1 4 5 5 5 2 5 1 0 0 0 0 1 2 0 0 0 0 0 3 1 45 21 0 2 0 0 90 18 8 22 0 5
100 100 100 99 100 100 100 86 39 10 5 0 3 5 5 5 0 1 6 1 0 0 0 0 0 0 0 0 0 0 0 0 0 0 0 2 25 32 61 18 0 0 2
100 100 100 83 100 100 100 90 36 43 15 0 2 5 5 5 4 0 84 92 61 47 13 56 0 13 79 100 82 72 0 0 2 3 13 72 100 100 58 55 18 0 16

GFSMW_prec_cloud_063.txt.gz
Cloud_Cover
100 37 100 88 0 0 0 0 0 0 0 0 1 13 0 0 0 0 0 0 0 0 0 0 0 73 25 0 57 2 27 99 98 7 54 0 98 74 0 0 0 0 0
100 63 0 16 0 0 0 0 0 0 0 0 0 0 0 0 0 0 3 0 0 0 0 0 0 16 26 0 2 16 38 8 100 0 10 9 19 49 5 0 0 0 0
100 85 68 0 0 0 0 0 0 0 0 0 0 0 0 0 0 0 0 3 0 0 0 0 2 4 3 0 0 88 15 0 0 0 100 74 26 0 7 12 5 0 0
100 43 18 0 0 0 0 0 0 0 0 0 0 0 0 0 0 0 0 0 22 6 0 0 6 32 1 0 0 11 0 0 0 0 10 0 2 84 0 0 46 4 0
100 99 14 0 0 0 0 0 0 0 0 0 0 0 0 34 0 0 0 0 0 2 5 0 11 42 0 0 0 0 96 38 0 0 0 15 3 76 0 0 0 0 0
100 96 2 0 0 0 0 0 0 0 0 0 0 0 0 0 3 0 0 4 0 0 1 1 0 2 0 2 2 0 0 0 0 0 0 0 60 0 2 0 0 0 0
94 4 5 0 0 0 0 0 0 0 0 0 0 0 0 0 5 75 0 41 6 0 0 0 2 2 0 0 0 0 0 0 0 0 0 0 0 0 89 0 0 0 0
100 2 0 0 0 0 0 0 0 0 0 0 0 0 0 0 0 0 0 0 4 0 0 0 0 0 0 0 0 0 0 0 0 0 0 0 69 0 0 4 0 0 0
98 50 44 4 0 0 0 0 0 0 0 0 0 0 0 0 0 0 0 0 11 0 0 0 0 0 0 0 0 0 0 0 0 0 0 0 0 0 0 0 0 0 0
100 100 53 56 0 0 0 0 0 0 0 0 0 0 0 0 0 0 0 0 0 0 0 0 0 0 0 0 0 0 0 0 0 0 0 0 0 0 0 0 0 0 0
100 100 100 100 16 0 0 0 0 0 0 0 0 0 0 0 0 0 0 0 0 0 0 0 0 0 0 0 0 0 0 0 0 0 0 0 0 0 0 0 0 0 0
100 100 100 100 45 14 0 0 0 0 0 0 0 0 0 0 0 0 0 0 0 0 0 0 0 0 0 0 0 0 0 0 0 0 0 0 0 0 0 0 0 0 0
100 100 100 100 100 100 4 54 5 0 0 0 0 0 0 0 0 0 0 0 0 0 0 0 0 0 0 0 0 0 0 0 0 0 0 0 0 0 0 0 0 0 0
100 100 100 100 100 100 100 18 67 1 0 0 0 0 0 0 0 0 0 0 0 0 0 0 0 0 0 0 0 0 0 0 0 0 0 0 0 0 0 0 0 0 0
13 74 100 100 100 100 45 5 74 5 0 0 0 0 0 0 0 0 0 0 0 0 0 0 0 0 0 0 0 0 0 0 0 0 0 0 0 0 0 0 0 0 0
5 100 100 100 99 83 100 100 100 100 11 0 0 0 0 0 0 0 0 0 0 0 0 0 0 0 0 0 0 0 0 0 0 0 0 0 0 0 0 0 0 0 0
89 100 100 92 100 100 100 100 100 99 99 5 5 0 0 0 0 0 0 0 0 0 0 0 0 0 0 0 0 0 0 0 0 0 0 0 0 0 0 0 0 0 0
1 57 74 100 100 100 100 100 100 100 21 23 15 49 0 0 0 0 0 0 0 0 0 0 0 0 0 0 0 0 0 0 0 0 0 0 0 0 0 0 0 0 0
2 2 38 97 100 100 100 100 100 100 100 100 100 100 24 0 0 0 0 0 0 0 0 0 0 0 0 0 0 0 0 0 0 0 0 0 0 0 0 0 0 0 0
0 2 0 17 86 96 52 38 36 100 100 100 100 90 12 2 0 0 0 0 0 0 0 0 0 0 0 0 0 0 0 0 0 0 0 0 0 0 0 0 0 0 0
100 70 62 5 99 100 100 38 8 100 100 100 100 100 45 5 5 0 0 0 0 0 0 0 0 0 0 0 0 0 0 0 0 0 0 0 0 0 0 0 0 0 0
100 100 100 81 47 100 100 100 100 100 100 100 100 100 37 5 3 0 0 0 0 0 0 0 4 0 0 0 22 0 12 0 0 0 0 0 0 0 0 0 0 0 0
100 100 100 100 36 90 100 100 76 100 100 93 100 99 7 66 58 0 3 5 0 0 0 0 2 3 0 0 12 25 0 0 0 0 0 0 0 0 0 0 0 2 7
76 100 100 100 95 100 100 100 96 72 100 100 44 99 62 9 95 5 1 0 0 0 0 4 19 17 4 1 0 14 19 33 14 0 4 0 0 20 17 0 4 5 5
100 99 52 100 89 100 100 100 86 97 100 96 20 1 0 5 5 5 5 4 5 0 0 0 0 19 13 0 0 0 0 0 0 0 0 0 0 0 0 6 14 5 13
97 98 100 23 67 83 100 100 100 92 100 100 96 0 0 4 5 5 19 94 78 25 2 0 0 0 63 0 0 22 20 16 55 8 0 0 0 0 0 51 36 26 5

GFSMW_prec_cloud_069.txt.gz
Cloud_Cover
73 100 87 12 28 0 0 0 0 0 0 0 0 0 6 0 0 0 1 5 0 1 0 4 2 0 0 0 0 0 0 0 0 0 0 0 0 0 0 0 0 0 0
96 100 100 87 100 1 0 0 0 0 0 0 0 0 0 0 0 1 1 7 0 0 0 2 0 0 0 0 0 0 0 0 0 0 0 0 0 0 0 0 0 0 0
100 92 100 73 79 24 7 0 0 0 0 0 0 0 0 0 0 2 0 0 16 1 0 5 5 19 2 0 0 0 0 0 0 18 10 0 0 0 0 0 0 0 0
100 100 100 3 7 84 90 0 0 0 0 0 0 0 0 0 0 0 0 0 0 0 5 3 27 2 0 0 0 0 0 0 0 0 5 0 0 0 0 0 0 0 0
98 95 99 15 5 87 15 0 0 0 0 0 0 0 0 0 0 0 0 0 0 5 1 0 5 0 0 0 0 0 0 0 0 0 0 0 0 0 0 0 0 0 0
60 67 94 81 100 91 0 0 0 0 0 0 0 0 0 0 0 0 0 0 0 0 5 4 5 5 2 0 0 0 0 0 0 0 0 0 0 0 0 0 0 0 0
98 91 84 87 100 67 5 0 0 0 0 0 0 0 0 0 0 0 0 0 0 0 0 0 3 1 0 0 0 0 0 0 0 0 0 0 0 0 0 0 0 0 0
95 47 62 90 93 5 4 0 2 0 0 0 0 0 0 0 0 0 0 0 0 2 0 0 0 0 0 0 0 0 0 0 0 0 0 0 0 0 0 0 0 0 0
4 93 0 54 5 48 0 0 0 0 0 0 0 0 0 0 0 0 0 0 0 18 0 0 0 0 0 0 0 0 0 0 0 0 0 0 0 0 0 0 0 0 0
6 57 3 2 0 10 10 1 1 0 0 0 0 0 0 0 0 0 0 0 0 0 0 0 0 0 0 0 0 0 0 0 0 0 0 0 0 0 0 0 0 0 0
0 26 8 3 0 5 5 4 0 0 0 0 0 0 0 0 0 0 0 0 0 0 0 0 0 0 0 0 0 0 0 0 0 0 0 0 0 0 0 0 0 0 0
0 1 94 8 14 79 40 4 5 0 0 0 0 0 0 0 0 0 0 0 0 0 0 0 0 0 0 0 0 0 0 0 0 0 0 0 0 0 0 0 0 0 0
0 2 0 64 100 100 100 65 94 5 0 0 0 0 0 0 0 0 0 0 0 0 0 0 0 0 0 0 0 0 0 0 0 0 0 0 0 0 0 0 0 0 0
1 1 54 72 100 100 100 100 58 6 0 0 0 0 0 0 0 0 0 0 0 0 0 0 0 0 0 0 0 0 0 0 0 0 0 0 0 0 0 0 0 0 0
33 56 42 8 37 100 100 100 100 32 5 0 0 0 0 0 0 0 0 0 0 0 0 0 0 0 0 0 0 0 0 0 0 0 0 0 0 0 0 0 0 0 0
100 92 92 18 24 100 100 100 92 80 12 5 0 0 0 0 0 0 0 0 0 0 0 0 0 0 0 0 0 0 0 0 0 0 0 0 0 0 0 0 0 0 0
12 95 100 99 100 99 100 100 100 100 100 12 3 0 5 20 50 47 0 0 0 0 0 0 0 0 0 0 0 0 0 0 0 0 0 0 0 0 0 0 3 0 0
23 17 84 100 98 76 100 100 100 100 100 68 10 4 5 71 20 50 90 0 0 0 0 0 0 0 0 0 0 0 0 0 0 0 0 0 0 0 0 0 0 0 0
5 39 6 70 70 64 100 96 100 100 76 8 74 86 94 5 5 5 6 13 0 0 0 0 0 0 0 0 0 0 0 0 0 0 0 0 0 0 1 0 0 0 0
0 99 22 65 29 85 94 100 71 100 99 100 100 100 100 100 52 100 100 82 43 38 9 0 0 0 0 0 4 15 0 0 0 0 0 0 0 0 0 1 0 0 0
2 35 100 76 78 67 21 100 98 100 98 100 100 96 100 100 100 100 99 100 66 43 70 78 1 0 0 0 0 7 0 0 0 0 0 0 0 0 12 24 0 0 0
0 51 72 99 56 100 96 100 100 100 100 100 100 100 100 100 100 100 100 96 96 85 5 76 60 0 0 0 6 2 38 0 0 0 0 0 0 0 3 35 14 53 89
0 0 87 86 94 65 100 99 100 100 100 100 100 100 100 100 100 100 99 85 81 100 64 43 64 5 0 0 8 8 23 11 0 0 0 0 0 0 13 10 5 64 99
0 0 10 60 99 24 91 99 100 100 100 100 91 100 100 100 100 100 100 100 100 100 16 88 33 80 2 0 0 6 40 63 44 0 3 0 4 1 8 83 100 100 100
0 0 35 90 78 61 10 98 100 100 100 92 100 100 100 100 100 90 88 98 100 100 100 100 100 100 35 1 0 0 0 0 11 6 41 67 68 65 66 96 100 100 100
3 0 8 99 100 95 12 59 100 100 100 100 100 100 100 100 100 100 100 99 100 100 100 100 100 100 93 5 10 60 89 97 98 90 100 100 100 96 52 72 98 100 100

GFSMW_prec_cloud_072.txt.gz
Cloud_Cover
100 28 16 5 11 5 0 0 0 0 0 0 0 0 0 0 0 0 3 0 0 0 0 0 0 0 0 0 0 0 0 0 0 0 0 0 0 0 0 0 0 0 0
92 75 36 4 35 3 10 6 0 0 0 0 0 0 0 0 0 1 1 0 0 2 0 0 0 0 0 0 0 0 0 0 0 0 0 0 0 0 0 0 0 0 0
49 89 5 4 4 4 23 13 0 0 0 0 0 0 0 0 0 1 2 0 0 0 0 0 0 0 0 0 0 0 0 0 0 28 0 11 14 0 0 0 0 0 0
8 6 23 5 5 0 4 87 0 0 0 0 0 0 0 0 0 0 0 0 0 1 5 0 0 0 29 0 0 0 0 0 0 0 0 0 0 0 0 0 0 0 0
4 100 100 5 5 4 94 9 0 0 0 0 0 0 0 0 0 0 0 0 0 0 4 1 0 0 0 0 0 0 0 0 0 0 0 0 0 0 0 0 0 0 0
4 5 95 34 5 56 6 36 0 0 0 0 0 0 0 0 0 0 0 0 0 0 0 0 2 0 0 0 0 0 0 0 0 0 0 0 0 0 0 0 0 0 0
5 5 5 33 55 13 12 100 2 0 0 0 0 0 0 0 0 0 0 0 0 0 0 0 0 6 0 0 0 0 0 0 0 0 0 0 0 0 0 0 0 0 0
5 1 5 5 20 62 90 100 5 0 0 0 0 0 0 0 0 0 0 0 0 0 0 0 0 0 0 0 0 0 0 0 0 0 0 0 0 0 0 0 0 0 0
5 5 5 26 97 5 9 35 5 0 1 0 0 0 0 0 0 0 0 0 0 0 98 0 0 0 2 0 0 0 0 6 0 0 0 0 0 0 0 0 0 0 0
6 5 5 4 5 3 9 42 99 5 0 0 0 0 0 0 0 0 0 0 0 0 0 0 0 0 0 0 0 0 0 0 0 0 0 0 0 0 0 0 0 0 0
93 5 52 72 35 4 1 12 22 80 21 62 4 0 0 0 0 0 0 0 0 0 0 0 0 0 0 0 0 0 0 0 0 0 0 0 0 0 0 0 0 0 0
5 5 2 4 80 35 15 0 18 63 14 100 98 35 0 0 0 0 0 0 0 0 0 0 0 0 0 0 0 0 0 0 0 0 0 0 0 0 0 0 0 0 0
42 21 4 49 91 99 100 86 40 16 48 7 100 100 26 0 0 0 0 0 0 0 0 0 0 0 0 0 0 0 0 0 0 0 0 0 0 0 0 0 0 0 0
94 69 37 34 74 100 100 100 100 6 96 5 32 100 100 2 0 0 0 0 0 0 0 0 0 0 0 0 0 0 0 0 0 0 0 0 0 0 0 0 0 0 0
100 100 100 100 97 82 91 100 100 100 100 54 3 0 2 40 6 0 0 0 0 0 0 0 0 0 0 0 0 0 0 0 0 0 0 0 0 0 0 0 0 0 0
100 100 100 100 100 100 100 100 100 100 100 100 20 0 5 0 22 4 0 0 0 0 0 0 0 0 0 0 0 0 0 0 0 0 0 0 0 4 1 0 0 0 0
2 46 99 100 100 100 100 97 100 100 100 100 49 5 1 4 0 0 0 0 0 0 0 0 0 0 0 0 0 0 0 0 0 0 0 0 0 4 0 5 16 16 0
0 0 21 27 100 100 100 100 100 99 100 97 100 80 4 5 0 0 0 0 0 0 0 0 0 0 0 0 0 0 0 0 0 0 0 0 0 0 0 0 0 0 0
0 0 0 2 1 92 100 59 100 100 100 96 50 27 5 3 0 0 0 0 1 0 0 0 0 0 0 0 0 0 0 0 0 0 0 0 0 0 11 0 0 0 0
0 0 5 0 0 15 79 86 44 70 100 100 82 84 80 100 60 3 0 1 4 0 0 0 0 0 0 0 0 2 0 0 0 0 0 0 0 0 19 0 0 0 1
0 0 0 45 2 0 95 88 34 98 100 100 99 74 99 100 100 100 78 24 18 91 11 0 0 0 0 0 0 0 0 0 0 0 0 0 1 2 25 26 0 5 7
0 0 0 0 14 18 3 39 79 43 97 99 98 100 96 100 100 100 100 48 88 100 85 30 8 1 24 7 0 0 35 0 0 0 0 0 0 18 20 40 9 19 94
0 0 0 0 0 0 77 58 91 14 84 100 100 80 100 92 93 99 100 100 70 81 100 100 62 49 35 83 11 0 0 1 0 0 0 0 0 0 63 19 10 71 81
0 0 0 0 0 0 32 100 84 100 20 64 97 100 91 100 100 100 98 96 100 100 74 100 100 84 98 27 67 3 4 42 24 0 1 0 8 9 4 13 23 96 100
0 0 0 0 0 0 0 74 89 89 99 64 57 100 100 100 100 95 94 82 100 100 99 97 84 93 94 58 8 29 4 5 8 26 22 34 53 61 47 55 44 10 95
0 0 0 0 0 26 31 89 61 92 58 88 95 99 90 100 100 100 100 100 69 99 100 100 93 12 82 96 96 100 100 100 100 87 88 100 95 100 100 100 100 100 48

GFSMW_prec_cloud_075.txt.gz
Cloud_Cover
100 83 50 5 5 0 0 0 0 0 0 0 0 0 0 0 0 0 0 0 0 0 5 0 9 30 0 0 0 0 0 0 0 0 0 0 0 0 0 0 0 0 0
100 75 5 5 4 4 0 0 0 0 0 0 0 0 0 0 0 0 0 0 0 0 0 0 0 0 0 0 0 0 0 0 0 0 0 0 0 0 0 0 0 0 0
90 38 10 6 5 5 4 9 7 0 0 0 0 0 0 0 0 0 0 0 0 0 0 0 0 0 0 0 0 0 0 0 0 11 0 0 2 0 0 0 0 0 0
100 96 6 5 5 1 17 6 51 0 0 0 0 0 0 0 0 0 0 0 0 0 0 2 0 0 5 0 0 0 0 0 0 0 0 0 0 0 0 0 0 0 0
96 88 91 5 5 5 1 100 34 0 0 0 0 0 0 0 0 0 0 0 0 0 0 0 0 0 0 0 0 0 0 0 0 0 0 0 0 0 0 0 0 0 0
5 71 12 6 33 5 2 73 94 0 0 0 0 0 0 0 0 0 0 0 0 0 0 0 0 1 0 0 0 0 0 0 0 0 0 0 0 0 0 0 0 0 0
3 4 3 5 58 77 4 54 99 28 0 0 0 0 0 0 0 0 0 0 0 0 0 0 3 5 0 0 0 0 0 0 0 0 0 0 0 0 0 0 0 0 0
0 0 0 0 5 38 72 74 15 9 3 0 2 0 0 0 0 0 0 0 0 0 0 0 0 0 2 0 0 0 0 0 0 0 3 0 0 0 0 0 0 0 0
5 4 5 2 5 7 1 4 26 25 6 4 1 3 0 0 0 0 0 0 0 0 0 0 0 0 0 0 0 0 0 0 0 0 0 0 0 0 0 0 0 0 0
38 5 5 75 43 20 5 6 16 62 92 66 26 5 0 0 0 0 0 0 0 0 0 0 0 0 0 0 0 0 0 0 0 0 0 0 0 0 0 0 0 0 0
100 99 8 88 44 14 4 8 29 66 70 54 30 18 0 0 0 0 0 0 0 0 0 0 0 0 0 0 0 0 0 0 0 0 0 0 0 0 0 0 0 0 0
100 99 96 89 20 5 5 5 58 100 100 100 98 30 99 14 0 0 0 0 0 0 0 0 0 0 0 0 0 0 0 1 0 0 0 0 0 0 0 0 0 0 0
100 100 100 98 43 65 89 77 61 3 20 100 68 78 100 100 38 0 0 0 0 0 0 0 0 0 0 0 0 0 0 0 0 0 0 0 0 0 0 0 0 0 0
100 100 100 100 100 100 78 53 73 26 2 6 18 23 79 77 100 57 0 0 0 0 0 0 0 0 0 0 0 0 0 0 0 0 0 0 0 0 0 0 0 0 0
94 100 100 100 100 100 100 100 96 61 100 66 74 29 5 38 100 97 20 0 0 0 0 0 0 0 0 0 0 0 0 0 0 0 0 0 0 0 0 0 0 0 0
42 26 63 90 100 100 100 100 100 100 100 100 100 5 78 5 5 31 40 0 0 0 0 0 0 0 0 0 0 0 0 0 0 0 0 0 0 10 1 0 0 0 0
0 16 73 96 56 99 100 100 100 100 100 99 100 99 96 99 34 3 0 0 0 0 0 0 0 0 0 0 0 0 0 0 0 0 0 0 0 0 0 40 25 34 2
0 0 1 45 53 87 100 100 100 100 100 100 100 100 100 100 90 26 4 0 0 0 0 0 0 0 0 0 0 0 0 0 0 0 0 0 0 0 0 0 0 0 0
0 0 0 0 43 48 12 51 95 100 100 100 100 96 100 100 100 93 48 39 39 4 0 0 0 0 0 0 0 6 0 0 0 0 0 0 0 0 0 0 0 0 0
0 0 0 0 0 11 92 57 8 29 57 98 100 100 98 100 99 100 62 69 76 26 4 0 0 0 0 0 0 6 0 0 0 0 0 0 0 0 0 3 2 2 1
0 0 0 0 0 0 0 0 8 47 5 5 90 100 100 98 100 94 98 53 57 66 75 55 14 1 0 0 0 0 0 0 0 0 0 0 0 2 24 26 5 5 7
0 0 0 0 0 0 0 0 0 25 19 0 7 28 80 94 100 96 100 100 100 99 98 100 84 25 16 9 4 0 43 0 0 0 0 0 0 7 32 52 5 5 70
0 0 0 0 0 0 0 0 0 17 39 0 0 2 13 100 100 85 92 100 64 43 59 98 79 74 6 13 19 0 0 2 0 0 0 0 0 14 66 58 5 73 7
0 0 1 0 0 0 0 0 11 83 14 5 0 5 16 99 100 100 100 100 100 100 100 90 68 46 92 10 38 28 3 49 27 0 4 0 9 9 12 21 34 1 3
45 50 67 54 16 0 0 0 0 95 44 4 0 2 21 18 100 95 63 100 100 100 88 77 94 100 62 44 48 16 54 4 3 0 6 23 50 70 73 57 57 61 27
17 100 100 100 100 100 87 13 17 96 40 41 52 10 3 53 97 64 76 16 100 99 79 99 91 46 100 98 60 100 100 100 100 56 66 45 43 80 92 74 100 97 83

GFSMW_prec_cloud_078.txt.gz
Cloud_Cover
45 12 12 3 5 1 0 0 0 0 0 0 0 0 0 0 1 20 0 0 0 0 0 0 0 0 35 27 0 0 0 35 0 44 21 0 0 0 0 0 0 0 0
44 42 30 5 0 3 3 3 3 0 0 0 0 5 2 12 25 24 0 0 0 4 0 0 4 1 43 0 0 1 62 0 0 40 34 21 4 0 0 0 0 0 0
97 26 45 4 5 3 4 7 4 0 0 0 0 6 3 0 0 0 0 0 1 0 4 0 20 0 18 46 0 0 2 68 0 1 61 95 41 22 0 0 0 0 0
91 54 62 5 5 0 0 12 5 0 0 0 0 1 25 13 15 11 9 6 1 90 3 0 0 0 10 0 0 0 11 25 34 0 0 4 0 20 26 0 0 0 0
88 72 78 7 1 4 0 1 22 2 0 0 0 0 0 12 5 52 1 7 1 0 30 5 0 1 0 0 0 0 0 0 53 65 22 0 0 0 1 2 0 0 0
100 99 47 5 0 91 5 20 29 100 5 8 2 0 2 1 27 5 11 22 24 2 0 5 98 2 0 0 0 0 0 3 0 1 1 24 24 31 23 5 0 0 0
100 100 100 10 7 8 99 5 5 78 94 29 6 1 0 0 0 0 1 90 70 33 1 0 71 0 0 0 0 4 0 0 0 0 28 4 21 7 52 4 1 6 0
74 100 94 100 33 4 10 17 5 100 100 46 19 4 0 0 0 0 24 11 58 74 4 0 0 1 2 0 0 2 0 13 0 2 0 25 0 0 1 53 9 1 0
71 70 82 98 50 2 3 3 97 62 79 98 5 4 0 0 0 0 0 1 0 46 0 0 0 3 0 0 0 2 0 1 0 0 0 0 0 0 0 0 0 5 15
76 100 100 37 4 0 5 1 22 5 91 100 98 6 0 0 0 0 0 0 12 0 13 0 1 0 0 0 1 0 0 0 0 0 1 0 14 0 0 0 0 0 0
22 48 100 100 16 7 2 92 96 91 18 40 100 76 30 0 0 0 0 0 0 0 0 0 1 98 54 1 0 0 9 9 2 0 0 0 0 0 0 0 0 0 0
100 100 90 100 97 36 21 79 95 88 75 39 72 100 99 78 6 0 0 0 0 0 0 0 4 2 3 4 5 0 0 2 0 0 0 0 0 0 0 0 0 0 1
100 100 100 100 99 98 98 80 42 59 95 51 14 74 100 19 54 0 0 0 0 0 0 0 0 0 0 5 0 0 0 0 0 3 1 0 0 0 0 0 0 0 5
100 100 100 100 100 100 90 64 93 76 24 13 6 0 56 3 14 13 0 0 0 0 0 0 0 0 3 0 2 0 2 4 0 0 2 0 0 0 0 0 0 0 4
100 100 100 100 100 100 100 100 79 81 92 27 34 13 2 1 1 0 42 0 0 0 0 0 0 0 0 2 1 0 0 2 0 0 0 0 0 0 0 0 0 0 0
0 5 25 82 100 100 100 100 100 100 93 43 24 78 71 44 14 1 5 0 0 0 0 0 0 0 0 0 0 0 1 0 0 0 0 0 0 0 1 0 0 0 0
0 0 30 8 49 94 92 100 100 100 100 100 97 64 66 100 100 100 43 6 0 0 0 0 0 0 0 0 0 0 0 0 0 0 0 0 0 0 0 45 23 18 1
0 0 0 0 0 39 90 100 100 100 100 100 100 100 100 100 95 100 100 94 47 22 1 0 0 0 0 0 0 0 0 0 0 0 0 0 0 0 0 0 0 0 0
0 0 0 0 0 0 0 33 100 61 96 100 100 100 100 100 100 100 40 100 100 100 74 14 8 9 0 0 0 3 0 0 0 0 0 0 0 0 0 0 0 0 0
0 0 0 0 0 0 0 0 0 60 30 10 59 98 100 100 100 96 97 100 66 69 95 96 45 16 7 0 0 11 0 0 0 0 0 0 0 0 0 0 0 0 0
0 0 0 0 0 0 0 0 0 0 0 0 1 60 92 97 97 100 100 94 100 97 45 33 50 83 48 20 0 0 0 0 0 0 0 0 0 0 0 2 0 0 4
0 0 0 0 0 0 0 0 0 0 0 0 0 0 31 100 99 97 95 100 100 97 100 52 9 47 43 52 8 0 74 1 0 0 0 0 0 0 0 39 0 3 58
0 0 0 0 0 0 0 0 0 0 0 0 0 0 0 0 3 18 99 43 69 94 72 89 26 46 69 90 17 0 0 11 6 0 0 0 0 0 65 38 0 73 3
8 17 15 12 8 6 2 3 0 0 0 0 0 0 0 0 0 0 0 88 56 28 96 72 61 29 91 68 100 71 13 59 38 0 0 0 1 25 17 20 35 0 0
100 100 100 78 35 23 77 80 72 40 0 0 0 0 0 0 0 0 0 0 2 9 8 43 81 22 15 81 100 94 78 35 28 34 9 3 0 0 16 33 18 10 18
100 100 100 100 100 90 99 45 26 15 98 73 0 0 0 0 0 0 0 0 6 16 5 21 63 98 29 50 94 86 100 100 100 100 41 5 4 1 12 45 53 34 2

GFSMW_prec_cloud_084.txt.gz
Cloud_Cover
62 10 24 25 5 0 0 51 34 0 17 0 65 12 50 59 76 54 5 3 73 14 0 7 0 100 3 73 6 0 0 91 0 0 41 0 0 1 0 62 29 5 5
98 13 30 37 0 4 0 0 2 0 0 0 0 77 100 6 46 98 4 97 95 3 0 84 34 50 41 0 11 66 20 83 0 27 24 58 20 87 21 0 0 0 0
98 73 26 47 10 3 5 0 0 0 0 0 0 4 58 39 18 88 0 2 40 4 75 1 85 24 2 0 0 50 1 33 14 0 100 40 60 0 0 0 0 0 0
57 93 96 63 49 0 1 5 4 0 0 33 0 0 78 24 0 3 9 15 68 28 5 0 0 84 45 53 0 88 35 0 0 0 100 39 100 0 79 0 0 0 0
100 100 21 38 100 1 0 0 0 0 0 0 21 7 0 51 96 33 19 2 0 79 22 19 0 4 100 38 74 0 3 61 87 0 0 2 41 100 19 5 0 0 0
100 100 100 25 100 14 0 0 0 0 2 10 28 2 0 80 69 85 92 15 0 0 0 63 0 4 45 7 2 0 2 51 1 0 0 0 0 2 33 23 64 0 0
100 100 100 98 53 76 0 0 0 1 0 3 80 2 2 3 57 35 96 82 97 4 10 2 0 1 0 29 5 0 0 0 0 0 0 45 92 54 0 0 61 75 49
100 100 100 100 97 89 0 0 0 0 5 0 13 1 0 1 0 94 84 75 70 97 80 32 0 0 0 0 27 0 0 0 0 0 0 0 8 0 31 53 0 54 26
100 100 95 61 87 100 10 0 0 0 0 5 4 9 0 3 5 5 1 0 42 78 47 49 90 4 0 5 5 1 34 4 4 0 0 10 0 0 3 59 0 82 1
100 46 99 84 75 91 24 0 0 0 0 0 5 2 0 5 65 5 7 0 91 84 100 100 100 100 5 5 82 16 74 100 11 0 0 0 4 22 74 3 0 0 0
100 89 100 100 100 100 100 100 19 44 0 0 2 0 0 0 1 98 7 5 0 11 72 100 100 100 9 34 97 26 61 84 3 0 3 71 0 0 33 0 0 0 0
92 100 100 100 100 100 100 100 100 98 38 0 0 0 0 0 0 0 99 69 5 0 0 1 31 0 10 5 100 84 5 5 10 0 0 0 0 0 0 20 84 65 0
100 100 100 100 100 100 100 100 100 100 10 25 0 0 0 0 0 0 4 14 45 0 0 0 0 0 0 0 24 98 5 6 45 13 1 0 0 0 0 0 0 0 0
98 90 84 100 100 100 99 100 100 100 68 100 100 100 66 1 0 0 0 0 0 3 5 2 0 0 0 0 0 0 48 73 3 4 4 0 0 0 0 0 0 0 0
96 40 16 61 100 100 100 98 94 90 99 73 100 100 100 79 64 40 0 0 0 0 0 1 1 0 0 0 0 0 0 0 0 0 6 15 2 0 0 0 0 0 0
81 98 96 47 24 12 14 100 100 100 100 100 46 54 100 100 54 3 39 6 1 0 0 0 0 0 0 0 0 0 0 0 0 0 0 0 28 99 76 0 0 0 0
0 0 2 5 5 16 96 100 100 100 100 100 100 100 100 84 83 22 4 5 47 59 2 1 0 0 0 0 0 0 0 0 0 0 0 0 0 0 0 0 0 0 0
0 0 0 0 0 0 51 100 100 100 100 100 100 95 84 84 79 48 95 48 24 49 93 4 0 0 0 0 0 0 0 0 0 0 0 0 0 0 0 0 0 0 0
0 0 0 0 0 0 0 5 100 100 100 100 100 100 91 83 66 53 75 100 100 89 74 7 5 0 0 0 0 0 0 0 0 0 0 0 0 0 0 0 0 0 0
0 0 0 0 0 0 0 0 2 100 100 100 100 100 100 24 95 61 66 93 100 94 21 37 49 4 0 0 0 4 0 0 0 0 0 0 0 0 0 0 0 0 0
0 0 0 0 0 0 0 0 0 0 48 100 100 100 100 76 4 2 4 5 45 88 78 30 5 5 46 5 6 2 2 0 0 0 0 0 0 0 0 0 0 0 1
0 0 0 0 0 0 0 0 0 0 0 0 5 27 8 3 56 71 0 0 5 12 72 74 100 21 6 95 48 93 100 67 58 4 0 0 24 8 60 73 12 0 0
0 0 0 0 0 0 0 0 0 0 0 0 0 0 0 0 0 2 6 0 0 0 0 25 66 98 100 81 100 100 100 84 100 100 67 47 21 18 21 3 18 45 53
0 0 0 0 17 0 6 0 0 0 0 0 0 0 0 0 0 0 0 0 0 0 0 0 10 78 100 68 100 98 100 100 100 100 100 100 73 80 59 20 0 0 0
23 6 9 24 33 21 20 24 22 11 7 0 0 0 0 0 0 0 0 0 0 0 0 0 0 22 100 77 62 95 97 100 100 100 100 100 100 99 27 1 0 0 0
25 34 28 53 50 28 34 23 20 20 20 19 2 0 0 0 0 0 0 0 0 0 0 0 0 0 17 100 100 58 91 100 100 100 100 100 100 100 100 100 100 91 40

GFSMW_prec_cloud_087.txt.gz
Cloud_Cover
94 28 94 0 0 5 0 92 0 0 2 0 0 0 77 12 0 100 4 5 0 0 0 1 2 0 0 0 0 0 0 37 4 0 0 66 23 0 0 0 0 2 5
8 44 0 5 1 1 4 37 2 0 1 1 0 0 0 0 16 31 2 85 80 4 1 6 0 83 0 0 0 0 0 0 0 0 0 5 4 0 0 0 0 0 1
18 55 2 0 5 0 1 0 0 0 0 0 81 58 50 0 0 28 43 0 47 0 0 3 3 1 0 0 0 0 8 0 0 0 0 0 0 0 0 0 0 0 0
98 93 100 1 0 2 5 0 0 0 0 0 69 69 28 1 32 20 0 0 66 10 0 5 9 53 2 0 0 0 0 0 0 0 0 0 7 0 0 0 0 0 0
100 100 100 100 86 7 11 0 0 0 0 6 6 5 50 46 3 5 3 0 10 86 5 40 5 17 28 94 0 0 0 0 0 34 0 18 4 17 0 1 1 0 0
100 100 100 100 100 68 14 0 0 0 1 14 17 0 6 9 45 2 62 86 100 3 3 72 2 0 1 0 0 0 0 0 0 0 0 0 85 77 6 0 0 0 0
100 100 100 100 100 76 0 0 0 0 0 0 40 1 0 4 13 19 35 1 90 0 43 16 5 5 1 0 0 0 0 0 0 0 0 2 0 1 27 0 1 14 0
100 100 100 100 100 100 39 12 0 0 0 35 2 1 0 4 56 5 100 100 3 6 94 10 6 87 27 3 4 3 0 0 0 0 0 0 0 0 0 0 0 34 0
100 100 100 100 100 100 100 21 11 6 31 0 4 5 3 10 5 75 42 93 82 2 9 71 100 100 27 5 5 5 8 6 3 0 0 0 0 0 0 0 0 2 72
100 100 99 97 100 34 94 95 100 100 100 100 24 0 1 1 0 3 12 58 12 48 44 100 100 100 11 58 20 10 16 3 2 1 0 0 0 0 0 3 0 0 0
100 100 100 100 98 100 100 100 100 100 100 100 100 7 0 0 0 0 3 2 55 5 5 16 78 81 88 38 5 1 0 29 5 2 0 0 0 0 0 0 0 0 0
100 100 100 100 100 100 100 100 100 100 100 100 87 12 0 0 69 99 1 5 5 10 5 2 3 7 0 0 5 3 0 2 1 5 4 0 0 0 0 0 0 0 0
100 100 100 100 100 100 100 100 100 100 100 100 100 100 100 100 100 100 98 1 0 1 5 5 5 3 1 0 0 0 1 2 5 5 3 2 0 0 0 0 0 0 0
100 100 100 100 100 95 100 100 100 100 100 100 100 86 100 100 100 100 100 58 1 0 0 0 0 0 0 0 0 0 0 0 4 3 0 1 0 0 0 0 0 0 0
100 96 77 100 89 66 100 100 100 100 100 100 100 80 100 100 100 100 100 100 90 81 73 2 1 0 0 0 0 0 0 0 0 0 0 0 0 0 30 1 0 0 0
83 99 100 10 4 8 74 100 100 100 100 100 100 100 100 100 100 100 100 100 94 72 10 5 9 23 1 0 0 0 0 0 0 0 0 0 0 0 3 63 0 0 0
58 6 89 43 32 12 16 28 100 100 100 100 100 100 100 100 100 100 100 100 100 97 16 8 71 7 97 64 1 0 0 0 0 0 0 0 0 0 0 0 0 0 0
4 0 0 0 8 41 39 60 61 97 100 100 100 100 100 100 100 100 100 100 100 100 100 13 5 38 5 5 5 30 2 5 3 0 0 0 0 0 0 0 0 0 0
0 0 0 0 0 0 0 0 5 33 19 100 100 100 100 100 100 100 100 100 100 100 100 24 6 10 5 3 1 17 83 46 5 5 0 0 0 0 0 0 0 0 0
0 0 0 0 0 0 0 0 0 5 5 100 94 100 100 100 100 100 100 100 100 91 97 100 100 100 60 22 36 44 69 98 6 0 1 0 0 0 0 0 0 0 0
0 0 0 0 0 0 0 0 0 0 0 72 100 100 100 100 100 100 100 100 100 100 100 85 100 95 46 58 100 100 27 20 61 5 5 2 33 17 1 18 0 0 0
0 0 0 0 0 0 0 0 0 0 0 0 82 100 100 100 100 100 100 100 100 100 100 79 99 92 100 100 95 100 96 82 99 84 67 62 100 100 100 41 0 0 0
0 0 0 0 0 0 0 0 0 0 0 0 0 100 100 100 100 100 100 100 100 100 100 95 21 37 10 38 100 79 24 100 99 99 68 100 96 64 36 84 14 0 0
0 0 0 0 0 0 0 0 0 0 0 0 0 0 0 0 0 82 100 100 94 92 100 100 100 16 1 0 0 0 1 93 100 99 100 100 100 60 98 86 10 6 0
0 0 0 0 0 0 0 0 0 0 0 0 0 0 0 0 0 0 0 54 100 100 100 92 86 58 4 2 0 0 0 0 48 97 93 100 100 47 52 90 100 48 19
0 0 0 0 0 0 0 0 0 0 0 0 0 0 0 0 0 0 0 0 0 0 0 0 0 0 0 0 0 0 0 76 100 88 42 32 100 100 44 10 98 100 100